Hourly Weather Bolshie Tarhany

Today, 15 June, Tuesday

Time Temperature Precipitation Wind Pressure Humidity
00:00 +17°C° 0 mm 0 mps 751 mmHg 88%
01:00 +19°C° 0 mm 1 mps 751 mmHg 88%
02:00 +19°C° 0 mm 1 mps 751 mmHg 88%
03:00 +19°C° 0 mm 1 mps 751 mmHg 89%
04:00 +19°C° 0.2 mm 1 mps 751 mmHg 88%
05:00 +20°C° 0.2 mm 1 mps 751 mmHg 88%
06:00 +20°C° 0.2 mm 1 mps 751 mmHg 87%
07:00 +20°C° 0.2 mm 1 mps 751 mmHg 88%
08:00 +20°C° 0.2 mm 1 mps 751 mmHg 89%
09:00 +20°C° 0 mm 1 mps 751 mmHg 91%
10:00 +21°C° 0 mm 2 mps 751 mmHg 84%
11:00 +23°C° 0 mm 2 mps 751 mmHg 77%
12:00 +24°C° 0 mm 2 mps 751 mmHg 71%
13:00 +25°C° 0.1 mm 2 mps 750 mmHg 68%
14:00 +26°C° 0.1 mm 1 mps 750 mmHg 64%
15:00 +26°C° 0.1 mm 1 mps 750 mmHg 61%
16:00 +26°C° 0.5 mm 2 mps 750 mmHg 66%
17:00 +25°C° 0.5 mm 2 mps 750 mmHg 72%
18:00 +24°C° 0.5 mm 2 mps 749 mmHg 77%
19:00 +22°C° 0.8 mm 3 mps 749 mmHg 79%
20:00 +21°C° 0.8 mm 3 mps 749 mmHg 82%
21:00 +20°C° 0.8 mm 3 mps 749 mmHg 85%
22:00 +20°C° 0.9 mm 3 mps 748 mmHg 87%
23:00 +19°C° 0.9 mm 4 mps 748 mmHg 89%

Tomorrow, 16 June, Wednesday

Time Temperature Precipitation Wind Pressure Humidity
00:00 +19°C° 0.9 mm 4 mps 747 mmHg 91%
01:00 +19°C° 0 mm 4 mps 747 mmHg 92%
02:00 +18°C° 0 mm 4 mps 747 mmHg 93%
03:00 +18°C° 0 mm 4 mps 747 mmHg 94%
04:00 +18°C° 0 mm 4 mps 746 mmHg 92%
05:00 +19°C° 0 mm 4 mps 746 mmHg 89%
06:00 +20°C° 0 mm 4 mps 746 mmHg 87%
07:00 +21°C° 0 mm 3 mps 745 mmHg 79%
08:00 +22°C° 0 mm 3 mps 745 mmHg 72%
09:00 +25°C° 0 mm 3 mps 745 mmHg 64%
10:00 +25°C° 0 mm 3 mps 745 mmHg 63%
11:00 +26°C° 0 mm 3 mps 745 mmHg 62%
12:00 +26°C° 0 mm 4 mps 745 mmHg 62%
13:00 +27°C° 0.2 mm 3 mps 745 mmHg 62%
14:00 +27°C° 0.2 mm 3 mps 745 mmHg 62%
15:00 +27°C° 0.2 mm 2 mps 745 mmHg 62%
16:00 +27°C° 0.8 mm 2 mps 744 mmHg 67%
17:00 +27°C° 0.8 mm 2 mps 744 mmHg 71%
18:00 +26°C° 0.8 mm 2 mps 744 mmHg 76%
19:00 +24°C° 1.4 mm 3 mps 745 mmHg 81%
20:00 +22°C° 1.4 mm 4 mps 745 mmHg 86%
21:00 +20°C° 1.4 mm 5 mps 746 mmHg 91%
22:00 +19°C° 0.5 mm 5 mps 746 mmHg 91%
23:00 +17°C° 0.5 mm 5 mps 747 mmHg 91%

Day after tomorrow, 17 June, Thursday

Time Temperature Precipitation Wind Pressure Humidity
00:00 +16°C° 0.5 mm 6 mps 748 mmHg 92%
01:00 +16°C° 0 mm 6 mps 748 mmHg 92%
02:00 +15°C° 0 mm 5 mps 749 mmHg 93%
03:00 +15°C° 0 mm 5 mps 750 mmHg 93%
04:00 +15°C° 0 mm 5 mps 750 mmHg 90%
05:00 +16°C° 0 mm 5 mps 751 mmHg 87%
06:00 +16°C° 0 mm 5 mps 751 mmHg 84%
07:00 +17°C° 0 mm 5 mps 752 mmHg 75%
08:00 +19°C° 0 mm 5 mps 752 mmHg 66%
09:00 +20°C° 0 mm 5 mps 753 mmHg 56%
10:00 +20°C° 0 mm 5 mps 753 mmHg 54%
11:00 +21°C° 0 mm 5 mps 753 mmHg 51%
12:00 +21°C° 0 mm 4 mps 753 mmHg 49%
13:00 +22°C° 0 mm 4 mps 753 mmHg 49%
14:00 +22°C° 0 mm 4 mps 753 mmHg 50%
15:00 +22°C° 0 mm 4 mps 754 mmHg 51%
16:00 +22°C° 0 mm 4 mps 754 mmHg 55%
17:00 +21°C° 0 mm 4 mps 754 mmHg 60%
18:00 +21°C° 0 mm 4 mps 754 mmHg 64%
19:00 +19°C° 0 mm 4 mps 754 mmHg 68%
20:00 +18°C° 0 mm 4 mps 754 mmHg 71%
21:00 +15°C° 0 mm 4 mps 755 mmHg 75%
22:00 +15°C° 0 mm 4 mps 755 mmHg 75%
23:00 +14°C° 0 mm 3 mps 755 mmHg 75%

18 June, Friday

Time Temperature Precipitation Wind Pressure Humidity
00:00 +14°C° 0 mm 3 mps 755 mmHg 75%
01:00 +13°C° 0 mm 3 mps 756 mmHg 75%
02:00 +13°C° 0 mm 3 mps 756 mmHg 75%
03:00 +12°C° 0 mm 3 mps 757 mmHg 75%
04:00 +13°C° 0 mm 3 mps 757 mmHg 73%
05:00 +14°C° 0 mm 3 mps 758 mmHg 70%
06:00 +16°C° 0 mm 3 mps 758 mmHg 67%
07:00 +17°C° 0 mm 3 mps 758 mmHg 62%
08:00 +18°C° 0 mm 4 mps 759 mmHg 57%
09:00 +19°C° 0 mm 4 mps 759 mmHg 51%
10:00 +20°C° 0 mm 4 mps 759 mmHg 51%
11:00 +20°C° 0 mm 4 mps 759 mmHg 50%
12:00 +21°C° 0 mm 4 mps 759 mmHg 49%
13:00 +21°C° 0 mm 4 mps 759 mmHg 49%
14:00 +21°C° 0 mm 4 mps 759 mmHg 49%
15:00 +22°C° 0 mm 3 mps 759 mmHg 48%
16:00 +21°C° 0 mm 3 mps 759 mmHg 53%
17:00 +21°C° 0 mm 2 mps 759 mmHg 58%
18:00 +22°C° 0 mm 1 mps 759 mmHg 62%
19:00 +20°C° 0 mm 1 mps 759 mmHg 64%
20:00 +18°C° 0 mm 1 mps 759 mmHg 66%
21:00 +16°C° 0 mm 1 mps 760 mmHg 68%
22:00 +16°C° 0 mm 1 mps 760 mmHg 69%
23:00 +15°C° 0 mm 2 mps 760 mmHg 70%

19 June, Saturday

Time Temperature Precipitation Wind Pressure Humidity
00:00 +15°C° 0 mm 2 mps 760 mmHg 71%
01:00 +15°C° 0 mm 2 mps 760 mmHg 74%
02:00 +14°C° 0 mm 2 mps 760 mmHg 77%
03:00 +14°C° 0 mm 2 mps 760 mmHg 80%
04:00 +14°C° 0 mm 3 mps 760 mmHg 79%
05:00 +16°C° 0 mm 3 mps 760 mmHg 77%
06:00 +17°C° 0 mm 3 mps 760 mmHg 76%
07:00 +19°C° 0 mm 3 mps 760 mmHg 72%
08:00 +21°C° 0 mm 4 mps 760 mmHg 69%
09:00 +22°C° 0 mm 4 mps 760 mmHg 65%
10:00 +23°C° 0 mm 4 mps 759 mmHg 62%
11:00 +25°C° 0 mm 5 mps 759 mmHg 60%
12:00 +26°C° 0 mm 5 mps 759 mmHg 57%
13:00 +27°C° 0 mm 5 mps 758 mmHg 57%
14:00 +27°C° 0 mm 5 mps 758 mmHg 57%
15:00 +27°C° 0 mm 5 mps 758 mmHg 58%
16:00 +27°C° 0 mm 5 mps 757 mmHg 62%
17:00 +26°C° 0 mm 5 mps 757 mmHg 66%
18:00 +26°C° 0 mm 5 mps 757 mmHg 69%
19:00 +23°C° 0 mm 4 mps 757 mmHg 75%
20:00 +22°C° 0 mm 4 mps 757 mmHg 80%
21:00 +20°C° 0 mm 4 mps 757 mmHg 86%
22:00 +20°C° 0 mm 4 mps 757 mmHg 85%
23:00 +20°C° 0 mm 5 mps 757 mmHg 84%

20 June, Sunday

Time Temperature Precipitation Wind Pressure Humidity
00:00 +20°C° 0 mm 5 mps 757 mmHg 83%
01:00 +20°C° 0 mm 5 mps 757 mmHg 84%
02:00 +19°C° 0 mm 4 mps 757 mmHg 85%
03:00 +19°C° 0 mm 4 mps 757 mmHg 85%
04:00 +20°C° 0 mm 4 mps 757 mmHg 84%
05:00 +20°C° 0 mm 4 mps 757 mmHg 83%
06:00 +21°C° 0 mm 4 mps 757 mmHg 82%
07:00 +22°C° 0 mm 4 mps 757 mmHg 77%
08:00 +25°C° 0 mm 4 mps 757 mmHg 72%
09:00 +26°C° 0 mm 4 mps 757 mmHg 67%
10:00 +27°C° 0 mm 4 mps 757 mmHg 63%
11:00 +28°C° 0 mm 4 mps 757 mmHg 60%
12:00 +29°C° 0 mm 3 mps 757 mmHg 57%
13:00 +29°C° 0.2 mm 3 mps 757 mmHg 56%
14:00 +29°C° 0.2 mm 3 mps 757 mmHg 56%
15:00 +29°C° 0.2 mm 3 mps 756 mmHg 55%
16:00 +28°C° 0.1 mm 2 mps 756 mmHg 60%
17:00 +28°C° 0.1 mm 2 mps 756 mmHg 65%
18:00 +27°C° 0.1 mm 2 mps 756 mmHg 70%
19:00 +26°C° 0.1 mm 2 mps 756 mmHg 73%
20:00 +24°C° 0.1 mm 2 mps 756 mmHg 77%
21:00 +23°C° 0.1 mm 2 mps 756 mmHg 80%
22:00 +21°C° 0 mm 2 mps 756 mmHg 82%
23:00 +21°C° 0 mm 2 mps 756 mmHg 84%
Show more